Flag for Germany Weather past 2 weeks in Schwabach, Bavaria, Germany

Now
50 °F

Light rain. Passing clouds.


Feels Like: 44 °F
Forecast: 36 / 42 °F
Wind: 16 mph from Southwest

Location: Nuernberg

Current Time: Dec 19, 2014 at 5:59:20 PM

Latest Report: Dec 19, 2014 at 5:20 PM


Visibility: N/A

Pressure: 29.98 "Hg

Humidity: 82%

Dew point: 45 °F

Location of SchwabachLocation

Historic Weather in Schwabach — Graph

°F

Schwabach temperature yesterday

Maximum temperature yesterday: 54 °F (at 9:20 PM)
Minimum temperature yesterday: 43 °F (at 12:20 AM)
Average temperature yesterday: 48 °F

Past Weeks' High & Low Weather Summary

 TemperatureHumidityPressure
High54 °F (Dec 18, 9:20 PM)100% (Dec 4, 4:20 PM)30.45 "Hg (Dec 4, 4:20 PM)
Low23 °F (Dec 9, 3:50 AM)58% (Dec 13, 12:20 PM)29.71 "Hg (Dec 12, 3:50 PM)
Average40 °F92%30.02 "Hg
* Reported Dec 4 4:20 PM — Dec 19 4:50 PM, Schwabach, Weather by CustomWeather, © 2014

Note: Actual official high and low records may vary slightly from our data, if they occured in-between our weather recording intervals... More about our weather records

Advertising

Schwabach weather history for previous 24 hours

 ConditionsComfort  
Time TempWeatherWind HumidityBarometerVisibility
4:50 PM
Dec 19
50 °FLight rain. Passing clouds.15 mph82%29.98 "HgN/A
4:20 PM50 °FLight rain. Passing clouds.17 mph82%29.98 "HgN/A
3:50 PM52 °FPartly sunny.14 mph72%29.98 "HgN/A
3:20 PM52 °FPartly sunny.15 mph72%29.98 "HgN/A
2:50 PM52 °FPartly sunny.16 mph72%29.98 "HgN/A
2:20 PM52 °FPartly sunny.21 mph72%29.98 "HgN/A
1:50 PM52 °FPartly sunny.18 mph72%29.98 "HgN/A
1:20 PM52 °FPartly sunny.17 mph77%29.98 "HgN/A
12:50 PM52 °FPartly sunny.16 mph77%30.01 "HgN/A
12:20 PM52 °FPartly sunny.15 mph77%30.01 "HgN/A
11:50 AM52 °FPartly sunny.13 mph77%30.01 "HgN/A
11:20 AM52 °FPartly sunny.16 mph77%30.01 "HgN/A
10:50 AM52 °FPartly sunny.13 mph77%30.04 "HgN/A
10:20 AM52 °FPartly sunny.15 mph77%30.04 "HgN/A
9:50 AM50 °FPartly sunny.10 mph82%30.04 "HgN/A
9:20 AM50 °FPartly sunny.8 mph82%30.04 "HgN/A
8:50 AM52 °FPartly sunny.10 mph77%30.04 "HgN/A
8:20 AM50 °FOvercast.14 mph82%30.04 "HgN/A
7:20 AM52 °FPassing clouds.16 mph77%30.04 "HgN/A
6:50 AM50 °FPassing clouds.20 mph82%30.04 "HgN/A
6:20 AM52 °FPassing clouds.17 mph77%30.07 "HgN/A
5:50 AM52 °FPassing clouds.15 mph77%30.07 "HgN/A
5:20 AM52 °FPassing clouds.22 mph77%30.07 "HgN/A
4:20 AM52 °FPassing clouds.21 mph77%30.07 "HgN/A
3:50 AM52 °FPassing clouds.18 mph77%30.07 "HgN/A
3:20 AM52 °FPartly cloudy.21 mph77%30.07 "HgN/A
2:50 AM52 °FPartly cloudy.18 mph82%30.07 "HgN/A
2:20 AM52 °FPassing clouds.14 mph88%30.07 "HgN/A
1:50 AM52 °FPassing clouds.16 mph88%30.07 "HgN/A
1:20 AM52 °FPassing clouds.15 mph88%30.07 "HgN/A
12:50 AM52 °FPassing clouds.24 mph82%30.07 "HgN/A
12:20 AM54 °FPassing clouds.23 mph82%30.07 "HgN/A
11:50 PM
Dec 18
54 °FPassing clouds.26 mph82%30.04 "HgN/A
11:20 PM54 °FPassing clouds.16 mph88%30.04 "HgN/A
10:50 PM54 °FPassing clouds.22 mph88%30.01 "HgN/A
10:20 PM54 °FPassing clouds.16 mph94%30.01 "HgN/A
9:20 PM54 °FPassing clouds.10 mph94%30.01 "HgN/A
8:50 PM52 °FPassing clouds.13 mph100%29.98 "HgN/A
8:20 PM52 °FPassing clouds.13 mph94%30.01 "HgN/A
7:50 PM52 °FPassing clouds.12 mph94%29.98 "HgN/A
7:20 PM52 °FPassing clouds.8 mph94%29.98 "HgN/A
6:50 PM50 °FPartly cloudy.8 mph100%29.98 "HgN/A
6:20 PM50 °FLight rain. Passing clouds.8 mph100%29.98 "HgN/A
5:50 PM50 °FPassing clouds.8 mph100%29.98 "Hg4 mi
5:20 PM50 °FPassing clouds.6 mph100%29.98 "Hg3 mi
Weather by CustomWeather, © 2014

See weather overviewHow to use our weather pages